Regional Weather Roundup
Issued by NWS

Home | Current Version | Previous Version | Graphics & Text | Print | Product List | Glossary On
Versions: 1 2 3 4 5 6 7 8 9 10 11 12 13 14 15 16 17 18 19 20 21 22 23 24 25 26 27 28 29 30 31 32 33 34 35 36 37 38 39 40 41 42 43 44 45 46 47 48 49 50
369
ASUS43 KLSX 232257
RWRMO

WEATHER SUMMARY FOR MISSOURI
NATIONAL WEATHER SERVICE SPRINGFIELD MO
500 PM CST TUE JAN 23 2018

NOTE: "FAIR" INDICATES FEW OR NO CLOUDS BELOW 12,000 FEET WITH NO
       SIGNIFICANT WEATHER AND/OR OBSTRUCTIONS TO VISIBILITY.
       CURRENT SKY AND/OR WEATHER CONDITIONS ARE NOT AVAILABLE FOR
       CHILLICOTHE AND FARMINGTON.

MOZ001>031-035>038-043-044-053-054-240000-
...NORTHERN AND WESTERN MISSOURI...

CITY           SKY/WX    TMP DP  RH WIND       PRES   REMARKS
KANSAS CTY INT PTCLDY    33  25  72 NW3       30.21R
LEE`S SUMMIT   CLEAR     35  26  69 W7        30.21R WCI  29
ST JOSEPH      PTCLDY    31  26  82 W7        30.23R WCI  24
CHILLICOTHE      N/A     31  23  72 NW5       30.21S WCI  26

$$
MOZ066>068-077>081-088>096-101>105-240000-
...SOUTHWEST MISSOURI...

CITY           SKY/WX    TMP DP  RH WIND       PRES   REMARKS
SPRINGFIELD    CLEAR     39  28  64 W9        30.21R
JOPLIN         CLEAR     40  29  64 W7        30.25R
BRANSON        CLEAR     41  27  56 W3        30.22R

$$
MOZ032>034-039>042-045>050-055>058-069>072-240000-
...CENTRAL MISSOURI...

CITY           SKY/WX    TMP DP  RH WIND       PRES   REMARKS
COLUMBIA       NOT AVBL
JEFFERSON CITY CLOUDY    36  27  69 NW9       30.21R WCI  29
ROLLA          MOCLDY    33  26  75 W8        30.18R WCI  26
SEDALIA        CLEAR     36  28  73 NW8       30.20R WCI  30
WARRENSBURG    CLEAR     36  27  69 W5        30.21S

$$
MOZ051-052-059>065-240000-
...EAST CENTRAL MISSOURI...

CITY           SKY/WX    TMP DP  RH WIND       PRES   REMARKS
ST LOUIS INTL  CLOUDY    36  28  73 NW14G22   30.16R WCI  27

$$
MOZ072>076-082>087-097>100-106>115-240000-
...SOUTH CENTRAL AND SOUTHEAST MISSOURI...

CITY           SKY/WX    TMP DP  RH WIND       PRES   REMARKS
CAPE GIRARDEAU CLOUDY    41  28  60 NW6       30.18R
POPLAR BLUFF   FAIR      44  29  55 NW10      30.18R
WEST PLAINS    CLEAR     39  27  62 NW8       30.19R

$$



USA.gov is the U.S. government's official web portal to all federal, state and local government web resources and services.